Location: Oshawa
(43.9000°N, 78.8670°W)
Time: 19:11:13
(UTC-05:00)

Explorer 7 - Visible Passes

Search period start: 19 November 2017 00:00
Search period end: 29 November 2017 00:00
Orbit: 486 x 683 km, 50.3° (Epoch: 19 November)

Date Brightness Start Highest point End Pass type
(mag) Time Alt. Az. Time Alt. Az. Time Alt. Az.
19 Nov 8.1 18:24:19 10° WNW 18:29:00 46° SW 18:33:12 12° SSE visible
20 Nov 8.9 18:30:09 10° WNW 18:34:26 31° SW 18:38:34 10° SSE visible
21 Nov 9.7 18:36:14 10° W 18:39:47 20° SW 18:43:14 10° S visible
22 Nov 10.2 18:43:00 10° WSW 18:45:03 13° SW 18:47:04 10° SSW visible
23 Nov 8.8 17:06:04 10° WNW 17:10:40 40° SW 17:15:09 10° SSE visible
24 Nov 9.7 17:11:58 10° WNW 17:16:04 27° SW 17:20:04 10° SSE visible
25 Nov 10.2 17:18:13 10° W 17:21:23 17° SW 17:24:31 10° S visible
26 Nov 10.9 17:25:51 10° WSW 17:26:38 10° SW 17:27:26 10° SW visible
